Hourly Data Report for February 17, 2021

TORONTO CITY
ONTARIO
Current Station Operator: ECCC - MSC

43°40'00.000" N
79°24'00.000" W
112.50 m
6158355
71508
XTO

Download Data

Hourly Data (February 2021)
Hourly Data Report for February 17, 2021
TIME
LST
Temp Definition
°C
Dew Point Definition
°C
Rel Hum Definition
%
Precip. Amount Definition
mm

Wind Dir Definition
10's deg

Wind Spd Definition
km/h
Visibility Definition
km
Stn Press Definition
kPa
Hmdx Definition


Wind Chill Definition


Weather Definition


00:00 -11.4 -15.4 72 0.0       100.82     LegendNANA
01:00 -12.0 -16.6 69 0.0       100.92     LegendNANA
02:00 -11.5 -17.0 64 0.0       101.00     LegendNANA
03:00 -12.3 -17.2 67 0.0       101.01     LegendNANA
04:00 -11.8 -16.1 70 0.0       101.08     LegendNANA
05:00 -11.2 -15.2 72 0.0       101.20     LegendNANA
06:00 -10.1 -13.9 74 0.0       101.34     LegendNANA
07:00 -9.8 -13.9 72 0.0       101.38     LegendNANA
08:00 -8.8 -13.8 67 0.0       101.42     LegendNANA
09:00 -7.3 -14.6 56 0.0       101.53     LegendNANA
10:00 -5.4 -15.3 46 0.0       101.52     LegendNANA
11:00 -4.3 -14.7 44 0.0       101.54     LegendNANA
12:00 -3.9 -15.7 39 0.0       101.58     LegendNANA
13:00 -3.9 -15.3 41 0.0       101.55     LegendNANA
14:00 -3.8 -14.5 43 0.0       101.54     LegendNANA
15:00 -3.5 -14.0 44 0.0       101.60     LegendNANA
16:00 -3.6 -14.2 43 0.0       101.60     LegendNANA
17:00 -3.7 -13.6 46 0.0       101.53     LegendNANA
18:00 -3.9 -12.9 50 0.0       101.50     LegendNANA
19:00 -4.4 -12.7 52 0.0       101.64     LegendNANA
20:00 -4.5 -12.0 56 0.0       101.66     LegendNANA
21:00 -4.7 -12.1 56 0.0       101.67     LegendNANA
22:00 -4.9 -12.3 56 0.0       101.73     LegendNANA
23:00 -5.2 -12.8 55 0.0       101.72     LegendNANA

Notes on Data Quality.

Legend

  • E = Estimated
  • M = Missing
  • NA = Not Available*
  • [empty] = Indicates an unobserved value
Date modified: